Wind_Speed
13 13 14 9 13 17 16 16 15 12 17 18 20 20 16 19 18 18 16 14 12 12 11 12 13 14 16 17 18 19 20 21 22 23 23 23 22 22 22 21 21 20 19 17
15 17 16 17 17 17 18 17 16 17 19 18 20 22 20 22 18 16 14 15 13 11 12 11 11 13 14 15 17 18 19 20 22 23 24 25 24 24 23 23 22 22 21 20
15 15 15 15 15 16 17 17 15 18 21 23 24 27 22 21 18 16 17 17 17 14 13 14 13 14 15 15 16 17 19 20 22 24 24 25 25 25 25 24 24 23 23 22
15 21 21 21 19 17 17 21 18 20 15 6 10 8 13 19 20 20 20 19 19 18 17 17 17 16 16 16 16 16 17 19 21 22 24 24 25 25 25 25 24 24 24 23
17 14 13 13 17 17 19 20 18 17 15 16 18 8 21 19 24 23 22 22 23 21 21 19 19 19 19 18 17 17 17 18 19 20 22 25 26 26 26 26 25 25 25 24
22 21 19 20 20 20 20 17 16 15 9 5 25 13 15 18 20 21 21 23 25 24 23 23 23 22 22 20 19 18 18 18 16 18 21 24 25 25 26 25 25 25 25 25
15 20 22 22 21 20 17 11 3 3 3 5 8 8 20 13 19 16 20 21 24 26 25 25 24 23 22 22 20 19 20 20 19 19 21 22 24 26 26 27 27 27 27 27
8 9 13 15 16 11 6 10 5 5 7 6 5 7 10 14 17 21 25 27 23 24 25 25 26 25 24 24 24 23 23 23 23 22 22 23 24 27 28 28 27 28 28 28
4 6 8 10 10 9 6 10 12 8 14 5 13 17 18 19 22 25 25 24 23 23 23 25 26 26 26 27 27 27 25 27 27 26 26 26 27 28 28 29 29 29 29 29
9 7 11 12 12 14 16 10 5 5 4 8 11 9 12 13 20 21 19 20 20 21 22 23 25 27 29 30 31 31 30 30 30 30 29 28 29 30 29 29 29 30 30 30
11 11 10 13 10 12 14 17 14 12 9 4 9 6 3 4 11 13 12 11 12 16 20 22 24 26 29 32 33 34 34 33 33 32 32 31 31 30 32 31 31 31 31 30
13 10 11 13 17 19 20 18 16 9 5 7 5 12 22 22 13 5 3 5 7 10 14 18 23 26 28 31 35 35 35 33 34 32 33 31 33 33 33 34 32 31 34 29
7 7 7 9 11 10 11 13 17 18 18 16 9 10 12 9 12 21 27 30 29 29 32 33 36 33 31 31 33 37 37 35 34 38 43 38 36 38 37 40 36 32 28 25
18 17 19 19 19 18 20 21 21 21 14 22 31 33 32 38 37 38 39 39 41 44 50 45 42 38 37 38 39 41 42 43 38 41 40 37 38 39 39 35 31 28 25 23
20 21 18 21 21 25 32 31 32 35 39 28 45 36 37 41 45 41 36 32 30 27 29 33 36 38 41 42 40 41 40 46 39 37 36 36 36 36 33 29 26 23 21 22
16 13 17 27 22 20 26 27 27 29 30 34 37 38 28 21 24 26 25 26 26 27 26 28 30 34 33 36 39 41 38 35 35 34 32 32 32 28 25 23 20 20 22 25
21 16 10 8 11 17 23 16 12 16 14 15 19 21 22 24 28 29 29 29 28 28 29 30 30 33 33 36 34 32 30 30 29 28 25 24 22 19 18 19 21 24 27 28
19 16 10 9 12 6 8 8 9 13 16 21 24 20 24 27 30 24 18 14 13 13 15 22 28 30 31 27 25 24 22 21 20 19 18 17 19 20 22 24 26 27 28 29
15 14 7 6 11 20 22 18 17 19 21 18 22 27 26 20 25 23 24 24 24 23 20 18 16 17 18 19 19 19 17 17 17 18 18 20 21 22 23 24 25 27 28 28
16 18 14 10 7 7 10 12 16 16 23 18 13 13 18 24 30 33 33 32 28 22 19 20 17 17 19 20 19 18 18 17 17 18 19 21 21 22 24 25 26 27 27 28
15 15 26 23 15 15 17 20 17 8 10 14 18 20 25 37 33 33 30 27 25 23 21 22 22 21 19 18 16 15 18 19 19 20 21 22 24 25 27 28 29 29 29 29
23 13 13 13 14 14 16 10 11 17 22 25 29 34 39 37 35 33 30 26 25 24 23 25 25 23 20 16 16 18 17 18 19 21 24 27 29 29 29 28 27 27 27 28
23 29 21 17 11 10 21 26 29 35 38 40 38 37 35 32 29 28 26 27 26 24 24 26 24 19 17 16 17 15 14 15 18 21 24 24 24 25 25 25 26 27 26 26
22 27 29 20 28 23 22 27 33 35 35 35 32 32 33 33 29 29 29 28 24 24 29 28 24 18 16 15 13 12 14 17 22 24 24 23 22 22 22 22 22 22 22 22
20 21 20 26 24 27 25 22 23 29 30 30 32 33 33 31 29 26 26 25 25 24 23 20 19 20 17 14 13 14 17 20 22 21 21 22 21 19 18 17 18 18 19 19
29 30 17 18 22 27 31 31 31 33 33 31 30 28 26 27 24 23 26 27 25 24 23 22 20 19 18 17 16 19 18 19 19 20 21 19 20 20 19 18 17 15 14 14
Wind_Direction
252 253 253 255 245 247 262 270 267 269 279 279 276 277 259 275 288 289 268 253 256 265 263 253 250 247 245 246 248 251 252 252 251 249 246 243 240 237 234 233 233 232 234 237
257 259 250 260 262 265 268 272 271 269 280 282 278 275 272 270 276 276 267 245 247 258 256 253 250 246 242 241 244 248 251 252 251 249 246 242 238 236 236 235 234 235 237 241
246 253 261 263 265 267 269 264 268 266 283 285 284 284 276 268 264 272 265 251 247 252 252 249 245 242 237 240 246 251 254 253 251 249 248 245 242 240 238 237 238 237 238 242
260 262 260 262 266 266 268 271 270 269 279 274 282 283 265 277 270 270 265 253 247 249 249 246 242 239 235 235 238 246 254 257 256 254 248 244 239 237 235 236 238 240 242 244
255 261 259 259 258 269 260 272 274 274 270 275 266 244 276 258 270 272 265 253 248 246 248 245 240 237 232 234 238 242 244 250 254 251 249 244 242 241 240 239 238 239 242 246
256 262 264 264 269 266 264 270 279 279 265 254 263 228 265 262 269 268 260 256 254 247 246 243 241 239 237 232 235 242 246 241 244 251 250 247 244 241 240 240 241 243 245 248
267 264 266 264 264 264 261 261 277 236 199 251 254 217 244 242 253 257 258 264 257 249 247 245 243 242 241 237 238 239 244 243 237 239 246 247 245 243 242 242 243 244 246 250
266 273 265 265 259 258 267 227 231 270 283 317 293 239 270 270 268 271 269 270 260 248 247 244 241 240 238 240 242 243 243 242 243 236 236 240 244 245 245 246 247 248 251 255
255 252 278 274 270 250 257 219 247 271 277 266 256 266 276 281 271 270 271 268 262 254 247 243 241 241 241 243 245 248 246 245 242 238 234 236 242 244 246 249 251 254 256 259
260 279 277 276 270 259 245 249 231 224 271 269 265 283 257 277 282 284 274 272 266 254 247 245 244 243 244 245 246 247 245 244 243 241 238 238 244 245 244 248 252 256 259 261
277 264 272 278 270 269 256 245 238 245 241 267 286 260 236 294 308 305 312 303 281 266 257 252 250 250 248 247 246 247 248 246 244 244 242 241 245 247 251 246 249 252 254 257
279 274 258 267 272 267 260 255 243 229 228 240 274 265 277 283 278 273 303 298 299 301 297 282 268 260 254 252 249 245 246 246 250 249 252 252 255 251 251 255 253 253 263 257
268 268 299 269 263 267 263 266 257 251 265 256 258 258 278 274 274 284 294 296 291 288 289 290 284 277 272 263 252 247 243 245 256 257 250 255 251 251 249 256 258 254 250 257
275 263 254 260 280 288 271 271 266 262 257 266 253 267 273 278 281 280 280 278 280 280 280 278 271 269 269 267 259 253 254 241 248 253 252 246 247 250 259 266 250 246 257 265
278 271 268 266 270 269 277 275 271 265 266 258 273 273 274 279 284 288 287 284 282 278 269 261 261 263 263 258 256 244 258 255 248 249 249 248 251 259 257 246 245 260 272 277
277 269 283 288 292 282 280 279 275 270 269 266 273 280 284 283 285 290 289 289 287 284 276 264 269 262 267 265 258 256 252 248 245 244 242 240 248 239 242 255 271 280 281 281
281 276 287 274 288 298 290 286 260 264 269 266 269 283 283 288 295 299 299 297 289 280 274 263 255 258 259 264 256 247 239 233 230 232 235 236 246 260 273 281 283 282 281 282
270 266 255 272 297 253 281 271 241 254 270 273 283 280 289 296 300 303 299 303 306 317 309 274 258 257 256 245 234 229 227 228 230 239 252 266 276 280 282 281 279 281 283 285
251 245 244 242 248 276 284 277 261 265 281 278 276 282 287 291 294 297 300 304 304 305 303 288 261 246 235 226 221 221 226 238 251 260 264 266 268 270 275 280 284 286 286 286
247 231 225 224 249 264 275 270 289 277 279 279 269 266 278 286 293 299 295 291 289 277 273 267 235 232 229 226 229 235 243 256 261 262 265 270 276 280 281 283 285 286 287 287
239 229 229 238 246 264 263 277 273 250 274 282 268 262 280 293 295 293 289 286 280 268 260 253 244 239 232 231 241 259 259 260 267 271 277 282 284 284 285 285 286 286 285 285
258 234 237 238 249 256 268 259 258 271 279 276 276 278 289 291 289 286 281 274 270 265 261 251 235 231 239 244 247 252 261 271 278 283 286 286 283 280 279 279 280 282 282 281
254 245 258 233 253 294 288 285 286 285 281 281 283 287 289 287 286 283 270 266 263 265 240 230 226 223 231 246 256 265 272 281 283 282 280 278 278 279 281 281 281 281 281 281
262 263 251 254 260 275 286 285 281 277 279 282 285 288 286 283 280 273 266 263 256 252 235 234 229 228 238 240 243 262 277 284 284 282 282 281 280 280 280 280 279 279 278 278
266 267 266 273 277 281 291 285 285 292 288 287 288 287 284 280 279 272 263 254 248 235 229 227 230 234 221 234 255 271 280 282 283 282 283 281 278 277 275 274 274 273 275 277
273 265 256 261 268 281 293 300 297 294 295 294 292 288 288 280 272 263 257 248 231 227 234 239 233 227 233 245 258 263 274 282 282 274 273 271 272 273 274 274 273 272 275 281
Height
3100 3101 3100 3102 3102 3101 3100 3100 3100 3101 3098 3097 3095 3094 3094 3093 3090 3089 3088 3088 3088 3088 3088 3088 3088 3089 3090 3092 3094 3096 3097 3099 3100 3101 3103 3105 3107 3109 3111 3113 3115 3116 3118 3119
3099 3097 3098 3097 3097 3097 3097 3097 3097 3096 3095 3094 3091 3089 3090 3088 3087 3085 3084 3084 3085 3085 3085 3085 3086 3086 3088 3089 3091 3092 3094 3095 3096 3097 3098 3100 3102 3105 3107 3109 3111 3113 3114 3116
3095 3095 3094 3094 3094 3094 3093 3093 3094 3093 3090 3089 3087 3083 3083 3083 3083 3082 3081 3081 3082 3082 3082 3082 3083 3083 3084 3086 3087 3089 3090 3091 3092 3093 3094 3096 3098 3101 3103 3105 3107 3109 3110 3112
3092 3089 3090 3090 3090 3090 3090 3088 3089 3089 3089 3089 3086 3082 3080 3078 3078 3077 3077 3077 3078 3078 3078 3078 3079 3080 3081 3082 3083 3085 3086 3087 3088 3089 3090 3092 3094 3096 3098 3100 3103 3105 3106 3108
3088 3087 3087 3086 3086 3086 3086 3085 3085 3085 3085 3084 3082 3083 3073 3074 3072 3072 3072 3072 3073 3073 3074 3074 3075 3076 3077 3078 3080 3081 3081 3082 3084 3085 3086 3087 3089 3092 3094 3097 3098 3100 3101 3103
3084 3084 3084 3082 3082 3082 3082 3082 3082 3082 3082 3081 3075 3077 3070 3070 3068 3067 3066 3067 3068 3069 3069 3070 3071 3072 3073 3075 3076 3077 3078 3078 3079 3081 3082 3084 3085 3088 3090 3092 3094 3095 3097 3098
3080 3079 3079 3079 3078 3078 3079 3080 3081 3080 3079 3072 3069 3071 3065 3064 3064 3064 3063 3063 3063 3064 3065 3066 3067 3068 3070 3071 3072 3073 3074 3075 3075 3076 3078 3080 3081 3083 3085 3087 3088 3090 3091 3093
3079 3077 3074 3074 3075 3076 3076 3078 3080 3074 3066 3064 3068 3064 3060 3061 3060 3060 3058 3058 3059 3059 3060 3061 3063 3064 3066 3067 3068 3069 3070 3071 3072 3071 3073 3074 3076 3078 3080 3082 3083 3085 3086 3087
3076 3074 3072 3072 3072 3075 3073 3074 3075 3074 3071 3070 3062 3059 3056 3057 3056 3056 3054 3054 3054 3055 3056 3057 3058 3060 3061 3062 3063 3064 3065 3066 3067 3067 3067 3069 3070 3072 3074 3076 3078 3079 3080 3081
3072 3072 3070 3069 3070 3071 3071 3072 3073 3073 3069 3060 3052 3054 3054 3053 3053 3052 3050 3049 3050 3051 3052 3053 3054 3055 3056 3057 3058 3059 3059 3060 3061 3062 3062 3063 3065 3066 3067 3069 3071 3072 3073 3074
3071 3070 3069 3068 3067 3066 3066 3065 3067 3068 3066 3059 3052 3051 3050 3050 3050 3050 3048 3048 3048 3048 3049 3050 3050 3050 3050 3051 3052 3052 3053 3053 3054 3056 3057 3057 3059 3060 3062 3062 3063 3064 3066 3066
3068 3066 3064 3065 3063 3062 3061 3061 3062 3063 3060 3058 3056 3047 3049 3047 3046 3046 3046 3045 3045 3045 3046 3046 3046 3045 3045 3045 3046 3046 3047 3048 3050 3050 3052 3053 3054 3054 3055 3057 3057 3057 3058 3059
3065 3063 3062 3056 3059 3057 3056 3056 3057 3057 3057 3051 3054 3043 3045 3044 3043 3042 3041 3040 3040 3039 3040 3040 3040 3040 3039 3039 3039 3039 3039 3040 3042 3042 3042 3043 3046 3047 3048 3048 3050 3050 3051 3051
3061 3059 3059 3057 3056 3054 3053 3053 3054 3053 3052 3047 3039 3039 3042 3038 3036 3036 3035 3033 3032 3032 3032 3032 3032 3031 3030 3029 3029 3029 3030 3031 3029 3031 3032 3034 3037 3038 3040 3041 3042 3043 3044 3044
3056 3052 3052 3050 3049 3047 3044 3045 3044 3042 3041 3041 3030 3033 3032 3031 3028 3026 3024 3022 3021 3021 3021 3020 3020 3020 3020 3019 3021 3021 3021 3021 3021 3022 3024 3027 3030 3031 3032 3033 3035 3035 3036 3037
3050 3047 3044 3040 3041 3039 3035 3034 3032 3032 3031 3029 3027 3023 3024 3022 3020 3019 3017 3016 3014 3013 3013 3012 3011 3010 3011 3011 3011 3011 3011 3012 3014 3016 3018 3021 3022 3023 3025 3026 3027 3028 3030 3030
3045 3043 3042 3037 3036 3034 3028 3022 3022 3023 3023 3023 3022 3022 3018 3017 3014 3013 3011 3008 3006 3004 3002 3002 3002 3003 3002 3002 3002 3003 3004 3006 3009 3010 3012 3015 3016 3017 3018 3019 3020 3022 3023 3023
3038 3038 3039 3034 3033 3030 3020 3019 3019 3018 3018 3018 3017 3015 3012 3010 3009 3008 3006 3003 3001 2999 2996 2994 2994 2994 2994 2995 2997 2999 3001 3003 3005 3007 3007 3008 3010 3011 3012 3014 3015 3015 3015 3015
3034 3034 3034 3032 3028 3020 3018 3013 3014 3013 3012 3012 3010 3009 3007 3005 3003 3003 3000 2998 2997 2995 2993 2991 2989 2989 2990 2991 2993 2995 2997 2998 3000 3002 3002 3003 3004 3005 3006 3006 3007 3007 3007 3007
3028 3028 3030 3027 3025 3014 3008 3009 3008 3008 3004 3004 3003 3002 3001 2999 2997 2997 2994 2992 2990 2990 2989 2987 2986 2986 2987 2988 2989 2990 2992 2993 2995 2996 2996 2997 2997 2998 2998 2999 2999 2999 2998 2998
3021 3021 3018 3017 3014 3007 3004 3004 3002 3004 3003 2997 2997 2996 2994 2993 2990 2987 2986 2984 2983 2982 2982 2982 2983 2983 2983 2984 2984 2986 2988 2990 2990 2990 2990 2990 2990 2991 2991 2991 2991 2990 2990 2989
3015 3013 3011 3010 3008 3004 2999 2999 3000 2998 2994 2992 2990 2989 2986 2984 2981 2979 2977 2976 2976 2976 2975 2976 2976 2977 2977 2979 2981 2983 2984 2983 2983 2983 2983 2982 2983 2983 2983 2983 2983 2982 2982 2982
3008 3006 3006 3004 3001 2995 2993 2994 2992 2988 2984 2983 2981 2979 2976 2974 2972 2970 2969 2968 2968 2968 2968 2969 2969 2971 2973 2974 2976 2977 2977 2977 2977 2977 2977 2976 2976 2975 2975 2975 2975 2975 2974 2973
2997 2997 2994 2994 2994 2990 2989 2987 2983 2980 2977 2974 2972 2970 2968 2965 2963 2961 2961 2960 2961 2962 2962 2962 2964 2965 2967 2969 2970 2970 2971 2971 2971 2970 2969 2969 2968 2968 2968 2968 2968 2968 2967 2967
2995 2992 2989 2986 2985 2982 2981 2977 2974 2973 2970 2967 2965 2961 2958 2955 2954 2953 2953 2954 2954 2955 2956 2958 2959 2961 2962 2964 2965 2965 2966 2966 2965 2963 2962 2962 2962 2962 2961 2961 2961 2962 2962 2961
2984 2982 2981 2980 2977 2976 2974 2971 2968 2964 2961 2958 2954 2952 2949 2947 2946 2946 2946 2946 2947 2949 2951 2953 2954 2956 2957 2959 2959 2960 2960 2959 2958 2957 2956 2956 2957 2957 2957 2957 2956 2956 2956 2955